User: anonymous   Login
Location: Chillicothe
(39.7950°N, 93.5520°W)
Time: 18:07:28
(UTC-06:00)
Language:

BUGSAT 1 - Orbit

View from above orbital plane
View from above orbital plane
View from above satellite
View from above satellite

Ground track
Ground track

The orbit data is extracted from the following two-line orbital elements,

1 40014U 14033E   19318.86757306 -.00000261  00000-0 -17748-4 0  9996
2 40014  98.0319 269.8812 0030613 287.7471  72.0423 14.95342092294794
Epoch (UTC): 14 November 2019 20:49:18
Eccentricity: 0.0030613
inclination: 98.0319°
perigee height: 560 km
apogee height: 602 km
right ascension of ascending node: 269.8812°
argument of perigee: 287.7471°
revolutions per day: 14.95342092
mean anomaly at epoch: 72.0423°
orbit number at epoch: 29479

The dashed part of the orbit path shows where the satellite is in the earth's shadow,  

DLR